View from above orbital plane
|
View from above satellite
|
Ground track
|
The orbit data is extracted from the following two-line orbital elements,
1 27601U 02056E 21103.22885712 -.00000049 00000-0 -32292-5 0 9999
2 27601 98.1966 129.0645 0073361 104.2425 28.3487 14.31990591957591
Epoch (UTC): | 13 April 2021 05:29:33 |
Eccentricity: | 0.0073361 |
inclination: | 98.1966° |
perigee height: | 732 km |
apogee height: | 837 km |
right ascension of ascending node: | 129.0645° |
argument of perigee: | 104.2425° |
revolutions per day: | 14.31990591 |
mean anomaly at epoch: | 28.3487° |
orbit number at epoch: | 95759 |
The dashed part of the orbit path shows where the satellite is in the earth's shadow,
|
|